Flag for U.S.A. Weather past 2 weeks in Hialeah, Florida, U.S.A.

Now
80 °F

Passing clouds.


Feels Like: 85 °F
Forecast: 78 / 88 °F
Wind: 6 mph from North

Location: Opa Locka Airport

Current Time: Jul 26, 2014 at 7:41:30 AM

Latest Report: Jul 26, 2014 at 6:53 AM


Visibility: 10 mi

Pressure: 30.07 "Hg

Humidity: 87%

Dew point: 76 °F

Location of HialeahLocation

Historic Weather in Hialeah — Graph

°F

Hialeah temperature yesterday

Maximum temperature yesterday: 91 °F (at 2:53 PM)
Minimum temperature yesterday: 75 °F (at 6:53 AM)
Average temperature yesterday: 84 °F

Past Weeks' High & Low Weather Summary

 TemperatureHumidityPressure
High94 °F (Jul 18, 2:53 PM)97% (Jul 21, 3:53 PM)30.15 "Hg (Jul 21, 3:53 PM)
Low75 °F (Jul 11, 5:53 AM)46% (Jul 18, 3:53 PM)29.97 "Hg (Jul 16, 5:53 PM)
Average82 °F77%30.05 "Hg
* Reported Jul 11 5:53 AM — Jul 26 5:53 AM, Hialeah, Weather by CustomWeather, © 2014

Note: Actual official high and low records may vary slightly from our data, if they occured in-between our weather recording intervals... More about our weather records

Advertising

Hialeah weather history for previous 24 hours

 ConditionsComfort  
Time TempWeatherWind HumidityBarometerVisibility
5:53 AM
Jul 26
79 °FClear.No wind90%30.05 "Hg10 mi
4:53 AM80 °FClear.5 mph87%30.05 "Hg10 mi
3:53 AM80 °FClear.3 mph87%30.05 "Hg10 mi
2:53 AM82 °FClear.No wind82%30.06 "Hg10 mi
1:53 AM82 °FClear.6 mph82%30.08 "Hg10 mi
12:53 AM82 °FPassing clouds.No wind82%30.10 "Hg10 mi
11:53 PM
Jul 25
82 °FClear.3 mph82%30.09 "Hg10 mi
10:53 PM83 °FClear.3 mph79%30.10 "Hg10 mi
9:53 PM83 °FPassing clouds.6 mph79%30.09 "Hg10 mi
8:53 PM84 °FSunny.7 mph74%30.07 "Hg10 mi
7:53 PM85 °FPartly sunny.7 mph70%30.06 "Hg10 mi
6:53 PM88 °FOvercast.9 mph65%30.04 "Hg10 mi
5:53 PM90 °FSunny.13 mph61%30.03 "Hg10 mi
4:53 PM89 °FMostly cloudy.14 mph63%30.04 "Hg10 mi
3:53 PM89 °FPassing clouds.9 mph61%30.05 "Hg10 mi
2:53 PM91 °FSunny.9 mph61%30.07 "Hg10 mi
1:53 PM87 °FScattered clouds.6 mph59%30.09 "Hg10 mi
12:53 PM85 °FScattered clouds.10 mph63%30.10 "Hg10 mi
11:53 AM89 °FHot.6 mph57%30.10 "Hg10 mi
10:53 AM88 °FPassing clouds.3 mph61%30.11 "Hg10 mi
9:53 AM86 °FScattered clouds.No wind67%30.10 "Hg10 mi
8:53 AM85 °FSunny.No wind70%30.10 "Hg10 mi
7:53 AM80 °FSunny.No wind85%30.09 "Hg10 mi
Weather by CustomWeather, © 2014

See weather overviewHow to use our weather pages